Terug naar catalogus

JILIN-01-09

ActiefWetenschapSSO
NORAD 43943·PAYLOAD·🇨🇳 China

Gelanceerd Jan 21, 2019 vanaf Jiuquan Satellite Launch Center

Loading…

Volgende Passages (komende 24 uur)

TLE

VersSource: Space-Track

Epoch: Sep 14, 2026, 14:16 UTC

1 43943U 19005B   26257.59466756  .00003769  00000-0  17225-3 0  9993
2 43943  97.4736 351.8324 0003460 120.6004 239.5573 15.21171752422737

Volg JILIN-01-09 in realtime met AllMySat

Download on the App Store